[[{"header":{"parameterUnit":"m.s-1","parameterCategory":1,"la1":30.2992,"la2":30.254,"lo1":-89.0895,"lo2":-89.0443,"dy":0.0025,"dx":0.0025,"nx":19,"ny":19,"refTime":"2026-03-27T03:00:00:Z","depth":0,"parameterNumber":2,"parameterNumberName":"U-component_of_WINDS"},"data":[0,0,0,1.0002,0.9999,0.9841,0.984,0.9643,0.9641,0,0,0,0,0,0,0,0,0,0,0,1.0055,1.0054,1.0002,0.9998,0.9841,0.984,0.9643,0.9641,0,0,0,0,0,0,0,0,0,0,0,1.0056,1.0054,1.0053,0.9998,0.9841,0.984,0.9644,0.976,0,0,0,0,0,0,0,0,0,0,0.9912,0.9969,1.0055,1.0053,0.9997,0.9841,0.984,0.9766,0.9753,0.9718,0,0.9691,0,0.9663,0.9629,0.9628,0,0,0,0.9993,0.998,0.9931,1.0053,0.9996,0.9841,0.991,0.9758,0.9744,0.9701,0.9688,0.9681,0.966,0.9627,0.9626,0.9451,0.945,0,0,1.0001,1.0029,0.9942,0.9923,0.9951,0.9915,0.9905,0.975,0.9736,0.9687,0.9676,0.9657,0.9626,0.9625,0.9451,0.9451,0,0,0,1.003,1.0036,0.9991,0.9931,0.9902,0.9911,0.9899,0.9743,0.9727,0.9674,0.9655,0.9625,0.9623,0.9452,0.9451,0.9454,0,0,0,1.0035,1.0053,0.9995,1.0011,0.9905,0.9821,0.9897,0.9737,0.9719,0.9656,0.9625,0.9621,0.9453,0.9452,0.9455,0.945,0,0,0,1.0063,1.0056,1.0036,1.0013,0.9946,0.9823,0.9797,0.9733,0.9707,0.9628,0.962,0.9453,0.9452,0.9456,0.9451,0.9413,0,0,0,1.01,1.0038,1.0036,0.9958,0.9948,0.9827,0.9798,0.9706,0.9638,0.9624,0.9452,0.9451,0.9456,0.9452,0.9415,0.9387,0.9378,0,0,1.0037,1.0031,0.9983,0.9977,0.9864,0.9849,0.9734,0.9643,0.9608,0.9504,0.95,0.9454,0.9452,0.9413,0.9316,0.9309,0,0,0,0.9972,0.9939,0.9902,0.9841,0.9772,0.9712,0.9636,0.9602,0.9514,0.9562,0.9428,0.9426,0.9402,0.9388,0.9382,0.936,0.9445,0.9446,0.9446,0.9923,0.9884,0.9802,0.9744,0.9684,0.9607,0.9554,0.9495,0.947,0.9439,0.9409,0.9355,0.9339,0.9335,0.9313,0.939,0.939,0.939,0.939,0.9828,0.9774,0.9745,0.9656,0.9614,0.9536,0.9459,0.9444,0.9365,0.9375,0.9352,0.9368,0.9329,0.9307,0.939,0.939,0.939,0.939,0.939,0.9793,0.976,0.9722,0.9629,0.9561,0.9502,0.9428,0.9391,0.9355,0.9332,0.9296,0.9296,0.9292,0.9317,0.9317,0.9317,0.9317,0.9317,0.9317,0.9772,0.9729,0.9673,0.9595,0.9551,0.9487,0.9409,0.9362,0.9302,0.928,0.928,0.9259,0.9332,0.9353,0.9314,0.9314,0.9315,0.9315,0.9315,0.9693,0.9705,0.9619,0.9575,0.948,0.9415,0.9368,0.9278,0.9234,0.9198,0.9181,0.9242,0.9232,0.9237,0.9253,0.919,0.919,0.919,0.919,0.9665,0.9657,0.9561,0.9493,0.9421,0.937,0.9272,0.9209,0.9145,0.9115,0.9118,0.9136,0.9142,0.9129,0.9136,0.9151,0.9063,0.9063,0.9063,0.9614,0.9598,0.9523,0.9465,0.9387,0.9321,0.9227,0.9147,0.9076,0.9057,0.9091,0.9096,0.9125,0.9136,0.912,0.9131,0.9157,0,0]},{"header":{"parameterUnit":"m.s-1","parameterCategory":1,"la1":30.2992,"la2":30.254,"lo1":-89.0895,"lo2":-89.0443,"dy":0.0025,"dx":0.0025,"nx":19,"ny":19,"refTime":"2026-03-27T03:00:00:Z","depth":0,"parameterNumber":3,"parameterNumberName":"V-component_of_WINDS"},"data":[0,0,0,0.0883,0.0881,0.0816,0.0816,0.0727,0.0726,0,0,0,0,0,0,0,0,0,0,0,0.09,0.0899,0.0883,0.0881,0.0816,0.0816,0.0727,0.0726,0,0,0,0,0,0,0,0,0,0,0,0.09,0.0899,0.0898,0.0881,0.0816,0.0816,0.0728,0.0779,0,0,0,0,0,0,0,0,0,0,0.0843,0.0856,0.0899,0.0898,0.0881,0.0816,0.0816,0.0781,0.0775,0.0755,0,0.0736,0,0.073,0.072,0.072,0,0,0,0.0883,0.0861,0.0845,0.0898,0.088,0.0816,0.0846,0.0778,0.0771,0.0747,0.0735,0.0732,0.0728,0.072,0.0719,0.0595,0.0595,0,0,0.0887,0.0886,0.085,0.0841,0.0851,0.0848,0.0844,0.0774,0.0761,0.0735,0.073,0.0727,0.0719,0.0718,0.0596,0.0595,0,0,0,0.0896,0.0889,0.0875,0.0845,0.0833,0.0846,0.0841,0.0764,0.0759,0.0729,0.0726,0.0718,0.0717,0.0597,0.0596,0.0561,0,0,0,0.0898,0.0894,0.0877,0.0876,0.0834,0.0798,0.0832,0.0764,0.0756,0.0726,0.0718,0.0716,0.0597,0.0596,0.0564,0.0544,0,0,0,0.0905,0.0895,0.0885,0.0876,0.0848,0.0799,0.0791,0.0763,0.0754,0.072,0.0716,0.0598,0.0596,0.0566,0.0548,0.051,0,0,0,0.0912,0.0855,0.0884,0.082,0.0848,0.0779,0.0791,0.0739,0.0705,0.0718,0.0597,0.0596,0.0567,0.055,0.0512,0.0476,0.0462,0,0,0.084,0.0847,0.0809,0.0833,0.0758,0.0789,0.0708,0.0678,0.0675,0.0622,0.0619,0.0563,0.0548,0.051,0.0385,0.0374,0,0,0,0.0786,0.0759,0.0739,0.0707,0.0683,0.066,0.0643,0.0631,0.0586,0.0648,0.054,0.0531,0.0509,0.0492,0.0482,0.0462,0.0589,0.0589,0.0589,0.0683,0.0683,0.0621,0.0612,0.0581,0.0564,0.0538,0.052,0.0529,0.0504,0.0487,0.0411,0.0391,0.0384,0.0363,0.047,0.047,0.047,0.047,0.0577,0.0537,0.0551,0.0495,0.0495,0.0448,0.043,0.0438,0.0393,0.0424,0.0404,0.0436,0.0371,0.0353,0.0467,0.0468,0.0468,0.0468,0.0468,0.0507,0.0488,0.0476,0.043,0.0394,0.0388,0.0345,0.0347,0.0349,0.033,0.0312,0.0312,0.0311,0.0322,0.0322,0.0321,0.0321,0.0321,0.0321,0.0439,0.0426,0.0389,0.0359,0.0339,0.0312,0.0295,0.0275,0.0253,0.0258,0.0258,0.0268,0.0366,0.0389,0.0317,0.0317,0.0318,0.0318,0.0318,0.0327,0.0353,0.0295,0.0275,0.0239,0.0203,0.0208,0.0166,0.015,0.0129,0.0144,0.0217,0.0223,0.0231,0.025,0.0146,0.0146,0.0146,0.0146,0.0266,0.027,0.0212,0.0178,0.0147,0.0145,0.0079,0.0066,0.0055,0.0045,0.0062,0.0088,0.0096,0.0097,0.0108,0.0125,-0.0008,-0.0008,-0.0008,0.0196,0.0197,0.014,0.0131,0.0104,0.008,0.0018,-0.0021,-0.0026,-0.0015,0.0037,0.0043,0.0086,0.01,0.011,0.0127,0.0159,0,0]}]]